Time,TemperatureF,DewpointF,PressureIn,WindDirection,WindDirectionDegrees,WindSpeedMPH,WindSpeedGustMPH,Humidity,HourlyPrecipIn,Conditions,Clouds,dailyrainin,SoftwareType,DateUTC
2013-01-08 00:00:00,30.4,23.7,30.03,WSW,249,16.1,16.1,76,0.00,CLR,,0.00,WeatherDisplay:10.37,2013-01-08 05:00:00,
2013-01-08 00:03:00,30.4,23.7,30.04,WSW,248,9.2,9.2,76,0.00,CLR,,0.00,WeatherDisplay:10.37,2013-01-08 05:03:00,
2013-01-08 00:04:00,30.3,23.6,30.04,WSW,240,6.0,6.0,76,0.00,CLR,,0.00,WeatherDisplay:10.37,2013-01-08 05:04:00,
2013-01-08 00:09:00,30.3,23.6,30.04,SW,234,13.8,13.8,76,0.00,CLR,,0.00,WeatherDisplay:10.37,2013-01-08 05:09:00,
2013-01-08 00:14:00,30.4,23.7,30.04,SW,230,10.4,10.4,76,0.00,CLR,,0.00,WeatherDisplay:10.37,2013-01-08 05:14:00,
2013-01-08 00:19:00,30.3,23.6,30.04,West,266,6.0,6.0,76,0.00,CLR,,0.00,WeatherDisplay:10.37,2013-01-08 05:19:00,
2013-01-08 00:24:00,30.3,23.6,30.04,WSW,248,6.9,6.9,76,0.00,CLR,,0.00,WeatherDisplay:10.37,2013-01-08 05:24:00,
2013-01-08 00:29:00,30.2,23.9,30.04,West,260,11.5,11.5,77,0.00,CLR,,0.00,WeatherDisplay:10.37,2013-01-08 05:29:00,
2013-01-08 00:34:00,30.3,24.0,30.04,WSW,238,8.1,8.1,77,0.00,CLR,,0.00,WeatherDisplay:10.37,2013-01-08 05:34:00,
2013-01-08 00:39:00,30.3,24.0,30.04,WSW,245,10.4,10.4,77,0.00,CLR,,0.00,WeatherDisplay:10.37,2013-01-08 05:39:00,
2013-01-08 00:44:00,30.3,24.0,30.04,West,271,10.4,10.4,77,0.00,CLR,,0.00,WeatherDisplay:10.37,2013-01-08 05:44:00,
2013-01-08 00:49:00,30.3,24.0,30.04,WSW,249,10.4,10.4,77,0.00,CLR,,0.00,WeatherDisplay:10.37,2013-01-08 05:49:00,
2013-01-08 00:54:00,30.3,24.0,30.04,WSW,256,10.4,10.4,77,0.00,CLR,,0.00,WeatherDisplay:10.37,2013-01-08 05:54:00,
2013-01-08 00:59:00,30.3,24.3,30.04,West,276,9.2,9.2,78,0.00,CLR,,0.00,WeatherDisplay:10.37,2013-01-08 05:59:00,
2013-01-08 01:04:00,30.2,24.2,30.04,West,261,6.9,6.9,78,0.00,CLR,,0.00,WeatherDisplay:10.37,2013-01-08 06:04:00,
2013-01-08 01:09:00,30.2,24.2,30.04,West,267,11.5,11.5,78,0.00,CLR,,0.00,WeatherDisplay:10.37,2013-01-08 06:09:00,
2013-01-08 01:14:00,30.1,24.1,30.04,WSW,248,12.7,12.7,78,0.00,CLR,,0.00,WeatherDisplay:10.37,2013-01-08 06:14:00,
2013-01-08 01:19:00,30.1,24.4,30.04,West,276,5.8,5.8,79,0.00,CLR,,0.00,WeatherDisplay:10.37,2013-01-08 06:19:00,
2013-01-08 01:24:00,30.1,24.4,30.04,West,260,11.5,11.5,79,0.00,CLR,,0.00,WeatherDisplay:10.37,2013-01-08 06:24:00,
2013-01-08 01:29:00,30.2,24.5,30.04,West,265,11.5,11.5,79,0.00,CLR,,0.00,WeatherDisplay:10.37,2013-01-08 06:29:00,
2013-01-08 01:34:00,30.1,24.4,30.04,West,270,9.2,9.2,79,0.00,CLR,,0.00,WeatherDisplay:10.37,2013-01-08 06:34:00,
2013-01-08 01:39:00,30.1,24.4,30.04,WSW,246,9.2,9.2,79,0.00,CLR,,0.00,WeatherDisplay:10.37,2013-01-08 06:39:00,
2013-01-08 01:44:00,30.0,24.3,30.04,WSW,254,11.5,11.5,79,0.00,CLR,,0.00,WeatherDisplay:10.37,2013-01-08 06:44:00,
2013-01-08 01:49:00,30.0,24.3,30.04,WSW,256,12.7,12.7,79,0.00,CLR,,0.00,WeatherDisplay:10.37,2013-01-08 06:49:00,
2013-01-08 01:54:00,29.9,24.5,30.04,West,272,3.5,3.5,80,0.00,CLR,,0.00,WeatherDisplay:10.37,2013-01-08 06:54:00,
2013-01-08 01:59:00,29.9,24.5,30.05,WSW,255,5.0,5.0,80,0.00,CLR,,0.00,WeatherDisplay:10.37,2013-01-08 06:59:00,
2013-01-08 02:04:00,29.9,24.5,30.05,West,268,6.9,6.9,80,0.00,CLR,,0.00,WeatherDisplay:10.37,2013-01-08 07:04:00,
2013-01-08 02:09:00,29.9,24.5,30.05,WNW,283,5.8,5.8,80,0.00,CLR,,0.00,WeatherDisplay:10.37,2013-01-08 07:09:00,
2013-01-08 02:14:00,29.9,24.5,30.05,West,259,11.5,11.5,80,0.00,CLR,,0.00,WeatherDisplay:10.37,2013-01-08 07:14:00,
2013-01-08 02:19:00,30.0,24.9,30.05,WSW,258,11.5,11.5,81,0.00,CLR,,0.00,WeatherDisplay:10.37,2013-01-08 07:19:00,
2013-01-08 02:24:00,30.0,24.9,30.05,WSW,252,15.0,15.0,81,0.00,CLR,,0.00,WeatherDisplay:10.37,2013-01-08 07:24:00,
2013-01-08 02:29:00,30.0,24.9,30.06,West,260,5.0,5.0,81,0.00,CLR,,0.00,WeatherDisplay:10.37,2013-01-08 07:29:00,
2013-01-08 02:34:00,29.9,24.8,30.06,WSW,247,10.4,10.4,81,0.00,CLR,,0.00,WeatherDisplay:10.37,2013-01-08 07:34:00,
2013-01-08 02:39:00,29.8,24.7,30.06,West,271,4.0,4.0,81,0.00,CLR,,0.00,WeatherDisplay:10.37,2013-01-08 07:39:00,
2013-01-08 02:44:00,29.7,24.9,30.06,WSW,250,11.5,11.5,82,0.00,CLR,,0.00,WeatherDisplay:10.37,2013-01-08 07:44:00,
2013-01-08 02:49:00,29.7,24.6,30.06,West,277,8.1,8.1,81,0.00,CLR,,0.00,WeatherDisplay:10.37,2013-01-08 07:49:00,
2013-01-08 02:54:00,29.6,24.8,30.07,WNW,285,3.5,3.5,82,0.00,CLR,,0.00,WeatherDisplay:10.37,2013-01-08 07:54:00,
2013-01-08 02:59:00,29.5,24.7,30.07,West,261,5.0,5.4,82,0.00,CLR,,0.00,WeatherDisplay:10.37,2013-01-08 07:59:00,
2013-01-08 03:04:00,29.5,24.7,30.07,WSW,252,5.0,5.0,82,0.00,CLR,,0.00,WeatherDisplay:10.37,2013-01-08 08:04:00,
2013-01-08 03:09:00,29.4,24.6,30.07,WNW,300,5.8,5.8,82,0.00,CLR,,0.00,WeatherDisplay:10.37,2013-01-08 08:09:00,
2013-01-08 03:14:00,29.4,24.6,30.06,West,269,5.0,5.0,82,0.00,CLR,,0.00,WeatherDisplay:10.37,2013-01-08 08:14:00,
2013-01-08 03:19:00,29.4,24.6,30.06,WSW,241,12.7,12.7,82,0.00,CLR,,0.00,WeatherDisplay:10.37,2013-01-08 08:19:00,
2013-01-08 03:24:00,29.4,24.6,30.07,WSW,257,3.5,3.5,82,0.00,CLR,,0.00,WeatherDisplay:10.37,2013-01-08 08:24:00,
2013-01-08 03:29:00,29.3,24.5,30.07,WSW,250,11.5,11.5,82,0.00,CLR,,0.00,WeatherDisplay:10.37,2013-01-08 08:29:00,
2013-01-08 03:34:00,29.2,24.7,30.07,West,270,10.4,10.4,83,0.00,CLR,,0.00,WeatherDisplay:10.37,2013-01-08 08:34:00,
2013-01-08 03:39:00,29.0,24.5,30.07,WSW,256,6.0,6.0,83,0.00,CLR,,0.00,WeatherDisplay:10.37,2013-01-08 08:39:00,
2013-01-08 03:44:00,29.0,24.5,30.06,West,261,10.4,10.4,83,0.00,CLR,,0.00,WeatherDisplay:10.37,2013-01-08 08:44:00,
2013-01-08 03:49:00,28.9,24.7,30.06,SW,225,9.2,9.2,84,0.00,CLR,,0.00,WeatherDisplay:10.37,2013-01-08 08:49:00,
2013-01-08 03:54:00,28.9,24.7,30.06,WNW,283,9.2,9.2,84,0.00,CLR,,0.00,WeatherDisplay:10.37,2013-01-08 08:54:00,
2013-01-08 03:59:00,28.9,24.7,30.06,WSW,238,10.4,10.4,84,0.00,CLR,,0.00,WeatherDisplay:10.37,2013-01-08 08:59:00,
2013-01-08 04:04:00,28.8,24.6,30.06,WSW,251,10.4,10.4,84,0.00,CLR,,0.00,WeatherDisplay:10.37,2013-01-08 09:04:00,
2013-01-08 04:09:00,28.9,24.7,30.06,WSW,257,4.6,4.6,84,0.00,CLR,,0.00,WeatherDisplay:10.37,2013-01-08 09:09:00,
2013-01-08 04:14:00,28.8,24.6,30.06,West,267,3.5,3.5,84,0.00,CLR,,0.00,WeatherDisplay:10.37,2013-01-08 09:14:00,
2013-01-08 04:19:00,28.7,24.5,30.06,WSW,254,3.0,3.0,84,0.00,CLR,,0.00,WeatherDisplay:10.37,2013-01-08 09:19:00,
2013-01-08 04:24:00,28.7,24.8,30.07,WSW,254,10.4,10.4,85,0.00,CLR,,0.00,WeatherDisplay:10.37,2013-01-08 09:24:00,
2013-01-08 04:29:00,28.8,24.9,30.07,WSW,257,9.0,9.0,85,0.00,CLR,,0.00,WeatherDisplay:10.37,2013-01-08 09:29:00,
2013-01-08 04:34:00,28.8,24.9,30.06,West,264,4.6,4.6,85,0.00,CLR,,0.00,WeatherDisplay:10.37,2013-01-08 09:34:00,
2013-01-08 04:39:00,28.8,24.9,30.07,WSW,244,4.6,4.6,85,0.00,CLR,,0.00,WeatherDisplay:10.37,2013-01-08 09:39:00,
2013-01-08 04:44:00,28.7,24.8,30.07,West,262,4.6,4.6,85,0.00,CLR,,0.00,WeatherDisplay:10.37,2013-01-08 09:44:00,
2013-01-08 04:49:00,28.7,24.8,30.07,WSW,245,4.6,4.6,85,0.00,CLR,,0.00,WeatherDisplay:10.37,2013-01-08 09:49:00,
2013-01-08 04:54:00,28.6,24.7,30.07,WSW,257,3.5,3.5,85,0.00,CLR,,0.00,WeatherDisplay:10.37,2013-01-08 09:54:00,
2013-01-08 04:59:00,28.5,24.8,30.07,West,269,5.8,5.8,86,0.00,CLR,,0.00,WeatherDisplay:10.37,2013-01-08 09:59:00,
2013-01-08 05:04:00,28.5,24.6,30.07,WSW,253,5.8,5.8,85,0.00,CLR,,0.00,WeatherDisplay:10.37,2013-01-08 10:04:00,
2013-01-08 05:09:00,28.4,24.7,30.07,SW,231,8.0,8.0,86,0.00,CLR,,0.00,WeatherDisplay:10.37,2013-01-08 10:09:00,
2013-01-08 05:14:00,28.5,24.8,30.07,WSW,246,4.6,4.6,86,0.00,CLR,,0.00,WeatherDisplay:10.37,2013-01-08 10:14:00,
2013-01-08 05:19:00,28.5,24.8,30.07,West,261,3.5,3.5,86,0.00,CLR,,0.00,WeatherDisplay:10.37,2013-01-08 10:19:00,
2013-01-08 05:24:00,28.5,24.8,30.07,WSW,243,4.6,4.6,86,0.00,CLR,,0.00,WeatherDisplay:10.37,2013-01-08 10:24:00,
2013-01-08 05:29:00,28.4,24.7,30.07,WSW,252,4.6,4.6,86,0.00,CLR,,0.00,WeatherDisplay:10.37,2013-01-08 10:29:00,
2013-01-08 05:34:00,28.4,24.7,30.07,WSW,248,3.0,3.0,86,0.00,CLR,,0.00,WeatherDisplay:10.37,2013-01-08 10:34:00,
2013-01-08 05:39:00,28.3,24.6,30.08,WSW,245,3.5,3.5,86,0.00,CLR,,0.00,WeatherDisplay:10.37,2013-01-08 10:39:00,
2013-01-08 05:44:00,28.1,24.7,30.08,WSW,238,3.5,3.5,87,0.00,CLR,,0.00,WeatherDisplay:10.37,2013-01-08 10:44:00,
2013-01-08 05:49:00,28.2,24.8,30.08,WSW,252,4.0,4.0,87,0.00,CLR,,0.00,WeatherDisplay:10.37,2013-01-08 10:49:00,
2013-01-08 05:54:00,28.3,24.9,30.08,WSW,251,7.0,7.0,87,0.00,CLR,,0.00,WeatherDisplay:10.37,2013-01-08 10:54:00,
2013-01-08 05:59:00,28.3,24.9,30.08,West,259,6.9,6.9,87,0.00,CLR,,0.00,WeatherDisplay:10.37,2013-01-08 10:59:00,
2013-01-08 06:04:00,28.4,25.0,30.08,WSW,250,5.8,5.8,87,0.00,CLR,,0.00,WeatherDisplay:10.37,2013-01-08 11:04:00,
2013-01-08 06:09:00,28.4,25.0,30.08,WSW,238,6.9,6.9,87,0.00,CLR,,0.00,WeatherDisplay:10.37,2013-01-08 11:09:00,
2013-01-08 06:14:00,28.4,25.0,30.08,WSW,246,3.5,3.5,87,0.00,CLR,,0.00,WeatherDisplay:10.37,2013-01-08 11:14:00,
2013-01-08 06:19:00,28.5,25.1,30.08,WSW,247,3.5,3.5,87,0.00,CLR,,0.00,WeatherDisplay:10.37,2013-01-08 11:19:00,
2013-01-08 06:24:00,28.4,25.0,30.09,WSW,256,2.3,2.3,87,0.00,CLR,,0.00,WeatherDisplay:10.37,2013-01-08 11:24:00,
2013-01-08 06:29:00,28.4,25.3,30.09,West,269,5.8,5.8,88,0.00,CLR,,0.00,WeatherDisplay:10.37,2013-01-08 11:29:00,
2013-01-08 06:34:00,28.4,25.0,30.08,WSW,244,3.5,3.5,87,0.00,CLR,,0.00,WeatherDisplay:10.37,2013-01-08 11:34:00,
2013-01-08 06:39:00,28.4,25.3,30.09,WSW,244,3.5,3.5,88,0.00,CLR,,0.00,WeatherDisplay:10.37,2013-01-08 11:39:00,
2013-01-08 06:44:00,28.2,25.1,30.09,WSW,244,3.5,3.5,88,0.00,CLR,,0.00,WeatherDisplay:10.37,2013-01-08 11:44:00,
2013-01-08 06:49:00,28.1,25.0,30.09,WSW,244,1.1,0.0,88,0.00,CLR,,0.00,WeatherDisplay:10.37,2013-01-08 11:49:00,
2013-01-08 06:54:00,28.0,24.9,30.10,WSW,244,2.0,2.0,88,0.00,CLR,,0.00,WeatherDisplay:10.37,2013-01-08 11:54:00,
2013-01-08 06:59:00,27.8,24.7,30.10,WSW,244,1.1,0.0,88,0.00,CLR,,0.00,WeatherDisplay:10.37,2013-01-08 11:59:00,
2013-01-08 07:05:00,27.6,24.5,30.10,WSW,244,2.0,2.0,88,0.00,CLR,,0.00,WeatherDisplay:10.37,2013-01-08 12:05:00,
2013-01-08 07:10:00,27.4,24.3,30.10,WSW,246,4.0,4.0,88,0.00,CLR,,0.00,WeatherDisplay:10.37,2013-01-08 12:10:00,
2013-01-08 07:15:00,27.2,24.1,30.10,WSW,246,0.0,0.0,88,0.00,CLR,,0.00,WeatherDisplay:10.37,2013-01-08 12:15:00,
2013-01-08 07:20:00,27.1,24.0,30.11,WSW,245,3.5,3.5,88,0.00,CLR,,0.00,WeatherDisplay:10.37,2013-01-08 12:20:00,
2013-01-08 07:25:00,27.0,24.2,30.11,WSW,245,3.5,3.5,89,0.00,CLR,,0.00,WeatherDisplay:10.37,2013-01-08 12:25:00,
2013-01-08 07:30:00,26.9,23.8,30.11,WSW,245,1.1,0.0,88,0.00,CLR,,0.00,WeatherDisplay:10.37,2013-01-08 12:30:00,
2013-01-08 07:35:00,26.8,24.0,30.11,WSW,246,3.5,3.5,89,0.00,CLR,,0.00,WeatherDisplay:10.37,2013-01-08 12:35:00,
2013-01-08 07:40:00,26.9,24.1,30.11,WSW,245,4.6,4.6,89,0.00,CLR,,0.00,WeatherDisplay:10.37,2013-01-08 12:40:00,
2013-01-08 07:45:00,26.8,23.7,30.12,WSW,245,0.0,0.0,88,0.00,CLR,,0.00,WeatherDisplay:10.37,2013-01-08 12:45:00,
2013-01-08 07:50:00,26.7,23.6,30.11,WSW,245,0.0,0.0,88,0.00,CLR,,0.00,WeatherDisplay:10.37,2013-01-08 12:50:00,
2013-01-08 07:55:00,26.6,23.5,30.11,WSW,245,2.3,2.3,88,0.00,CLR,,0.00,WeatherDisplay:10.37,2013-01-08 12:55:00,
2013-01-08 08:00:00,26.4,23.6,30.12,WSW,245,0.0,0.0,89,0.00,CLR,,0.00,WeatherDisplay:10.37,2013-01-08 13:00:00,
2013-01-08 08:05:00,26.3,23.5,30.12,WSW,245,0.0,0.0,89,0.00,CLR,,0.00,WeatherDisplay:10.37,2013-01-08 13:05:00,
2013-01-08 08:10:00,26.2,23.4,30.12,WSW,245,0.0,0.0,89,0.00,CLR,,0.00,WeatherDisplay:10.37,2013-01-08 13:10:00,
2013-01-08 08:15:00,26.2,23.4,30.13,WSW,245,3.5,3.5,89,0.00,CLR,,0.00,WeatherDisplay:10.37,2013-01-08 13:15:00,
2013-01-08 08:20:00,26.1,23.3,30.13,WSW,246,4.0,4.0,89,0.00,CLR,,0.00,WeatherDisplay:10.37,2013-01-08 13:20:00,
2013-01-08 08:25:00,26.1,23.3,30.13,WSW,248,2.3,0.0,89,0.00,CLR,,0.00,WeatherDisplay:10.37,2013-01-08 13:25:00,
2013-01-08 08:30:00,26.1,23.3,30.13,WSW,249,3.5,3.5,89,0.00,CLR,,0.00,WeatherDisplay:10.37,2013-01-08 13:30:00,
2013-01-08 08:35:00,26.2,23.4,30.13,WSW,249,3.5,3.5,89,0.00,CLR,,0.00,WeatherDisplay:10.37,2013-01-08 13:35:00,
2013-01-08 08:40:00,26.2,23.4,30.14,WSW,248,2.3,2.3,89,0.00,CLR,,0.00,WeatherDisplay:10.37,2013-01-08 13:40:00,
2013-01-08 08:45:00,26.2,23.4,30.15,WSW,249,3.5,3.5,89,0.00,CLR,,0.00,WeatherDisplay:10.37,2013-01-08 13:45:00,
2013-01-08 08:50:00,26.2,23.4,30.15,WSW,249,0.0,0.0,89,0.00,CLR,,0.00,WeatherDisplay:10.37,2013-01-08 13:50:00,
2013-01-08 08:55:00,26.2,23.4,30.15,WSW,249,2.3,2.3,89,0.00,CLR,,0.00,WeatherDisplay:10.37,2013-01-08 13:55:00,
2013-01-08 09:00:00,26.2,23.4,30.15,WSW,248,3.5,3.5,89,0.00,CLR,,0.00,WeatherDisplay:10.37,2013-01-08 14:00:00,
2013-01-08 09:05:00,26.1,23.3,30.15,WSW,248,3.5,3.5,89,0.00,CLR,,0.00,WeatherDisplay:10.37,2013-01-08 14:05:00,
2013-01-08 09:10:00,26.1,23.3,30.15,WSW,248,2.3,2.3,89,0.00,CLR,,0.00,WeatherDisplay:10.37,2013-01-08 14:10:00,
2013-01-08 09:15:00,26.1,23.3,30.15,WSW,248,0.0,0.0,89,0.00,CLR,,0.00,WeatherDisplay:10.37,2013-01-08 14:15:00,
2013-01-08 09:20:00,26.1,23.3,30.15,WSW,248,0.0,0.0,89,0.00,CLR,,0.00,WeatherDisplay:10.37,2013-01-08 14:20:00,
2013-01-08 09:25:00,26.2,23.4,30.15,WSW,248,0.0,0.0,89,0.00,CLR,,0.00,WeatherDisplay:10.37,2013-01-08 14:25:00,
2013-01-08 09:30:00,26.3,23.5,30.15,WSW,248,2.0,0.0,89,0.00,CLR,,0.00,WeatherDisplay:10.37,2013-01-08 14:30:00,
2013-01-08 09:35:00,26.6,23.8,30.15,WSW,248,3.5,3.5,89,0.00,CLR,,0.00,WeatherDisplay:10.37,2013-01-08 14:35:00,
2013-01-08 09:40:00,26.8,24.0,30.15,WSW,248,3.5,3.5,89,0.00,CLR,,0.00,WeatherDisplay:10.37,2013-01-08 14:40:00,
2013-01-08 09:45:00,27.0,23.9,30.15,WSW,248,4.6,4.6,88,0.00,CLR,,0.00,WeatherDisplay:10.37,2013-01-08 14:45:00,
2013-01-08 09:50:00,27.2,24.1,30.16,WSW,249,2.3,0.0,88,0.00,CLR,,0.00,WeatherDisplay:10.37,2013-01-08 14:50:00,
2013-01-08 09:55:00,27.5,24.4,30.16,WSW,249,0.0,0.0,88,0.00,CLR,,0.00,WeatherDisplay:10.37,2013-01-08 14:55:00,
2013-01-08 10:00:00,27.9,24.5,30.16,WSW,249,3.5,3.5,87,0.00,CLR,,0.00,WeatherDisplay:10.37,2013-01-08 15:00:00,
2013-01-08 10:05:00,28.3,24.6,30.16,WSW,249,3.5,3.5,86,0.00,CLR,,0.00,WeatherDisplay:10.37,2013-01-08 15:05:00,
2013-01-08 10:10:00,28.6,24.9,30.16,WSW,247,4.6,4.6,86,0.00,CLR,,0.00,WeatherDisplay:10.37,2013-01-08 15:10:00,
2013-01-08 10:15:00,28.8,24.9,30.16,WSW,248,3.5,3.5,85,0.00,CLR,,0.00,WeatherDisplay:10.37,2013-01-08 15:15:00,
2013-01-08 10:20:00,29.3,25.4,30.16,SW,228,6.9,6.9,85,0.00,CLR,,0.00,WeatherDisplay:10.37,2013-01-08 15:20:00,
2013-01-08 10:25:00,29.6,25.4,30.16,WSW,242,9.2,9.2,84,0.00,CLR,,0.00,WeatherDisplay:10.37,2013-01-08 15:25:00,
2013-01-08 10:30:00,29.9,25.7,30.16,WNW,286,1.1,1.1,84,0.00,CLR,,0.00,WeatherDisplay:10.37,2013-01-08 15:30:00,
2013-01-08 10:35:00,30.3,25.8,30.17,WNW,291,3.5,3.5,83,0.00,CLR,,0.00,WeatherDisplay:10.37,2013-01-08 15:35:00,
2013-01-08 10:40:00,30.7,26.1,30.17,West,279,4.6,4.6,83,0.00,CLR,,0.00,WeatherDisplay:10.37,2013-01-08 15:40:00,
2013-01-08 10:45:00,30.9,26.3,30.17,WSW,252,4.6,4.6,83,0.00,CLR,,0.00,WeatherDisplay:10.37,2013-01-08 15:45:00,
2013-01-08 10:50:00,31.1,26.2,30.17,WSW,255,6.0,6.0,82,0.00,CLR,,0.00,WeatherDisplay:10.37,2013-01-08 15:50:00,
2013-01-08 10:55:00,31.4,26.5,30.17,WSW,237,5.8,5.8,82,0.00,CLR,,0.00,WeatherDisplay:10.37,2013-01-08 15:55:00,
2013-01-08 11:00:00,31.6,26.7,30.16,WSW,244,6.9,6.9,82,0.00,CLR,,0.00,WeatherDisplay:10.37,2013-01-08 16:00:00,
2013-01-08 11:05:00,31.9,26.7,30.16,WSW,249,5.8,5.8,81,0.00,CLR,,0.00,WeatherDisplay:10.37,2013-01-08 16:05:00,
2013-01-08 11:10:00,32.2,27.0,30.16,West,275,9.2,9.2,81,0.00,CLR,,0.00,WeatherDisplay:10.37,2013-01-08 16:10:00,
2013-01-08 11:15:00,32.4,27.2,30.16,WSW,251,10.4,10.4,81,0.00,CLR,,0.00,WeatherDisplay:10.37,2013-01-08 16:15:00,
2013-01-08 11:20:00,32.8,27.6,30.16,WSW,242,5.8,5.8,81,0.00,CLR,,0.00,WeatherDisplay:10.37,2013-01-08 16:20:00,
2013-01-08 11:25:00,32.9,27.4,30.16,SW,230,4.6,4.6,80,0.00,CLR,,0.00,WeatherDisplay:10.37,2013-01-08 16:25:00,
2013-01-08 11:30:00,33.2,27.7,30.16,WSW,240,0.0,0.0,80,0.00,CLR,,0.00,WeatherDisplay:10.37,2013-01-08 16:30:00,
2013-01-08 11:35:00,33.6,27.8,30.16,West,279,4.6,4.6,79,0.00,CLR,,0.00,WeatherDisplay:10.37,2013-01-08 16:35:00,
2013-01-08 11:40:00,33.8,28.0,30.16,WSW,246,3.5,3.5,79,0.00,CLR,,0.00,WeatherDisplay:10.37,2013-01-08 16:40:00,
2013-01-08 11:45:00,34.1,28.3,30.16,West,268,5.8,5.8,79,0.00,CLR,,0.00,WeatherDisplay:10.37,2013-01-08 16:45:00,
2013-01-08 11:50:00,34.3,28.5,30.15,West,272,3.5,3.5,79,0.00,CLR,,0.00,WeatherDisplay:10.37,2013-01-08 16:50:00,
2013-01-08 11:55:00,34.9,29.0,30.15,West,271,3.5,3.5,79,0.00,CLR,,0.00,WeatherDisplay:10.37,2013-01-08 16:55:00,
2013-01-08 12:01:00,35.6,29.1,30.15,West,269,3.5,3.5,77,0.00,CLR,,0.00,WeatherDisplay:10.37,2013-01-08 17:01:00,
2013-01-08 12:06:00,35.8,29.3,30.15,WSW,257,4.6,4.6,77,0.00,CLR,,0.00,WeatherDisplay:10.37,2013-01-08 17:06:00,
2013-01-08 12:11:00,36.2,29.7,30.15,WSW,241,5.0,5.0,77,0.00,CLR,,0.00,WeatherDisplay:10.37,2013-01-08 17:11:00,
2013-01-08 12:16:00,36.4,29.6,30.15,WSW,238,4.6,4.6,76,0.00,CLR,,0.00,WeatherDisplay:10.37,2013-01-08 17:16:00,
2013-01-08 12:21:00,36.5,29.7,30.15,SW,225,3.5,3.5,76,0.00,CLR,,0.00,WeatherDisplay:10.37,2013-01-08 17:21:00,
2013-01-08 12:26:00,36.7,29.8,30.14,WSW,250,4.0,4.0,76,0.00,CLR,,0.00,WeatherDisplay:10.37,2013-01-08 17:26:00,
2013-01-08 12:31:00,36.9,29.7,30.14,WSW,256,3.5,3.5,75,0.00,CLR,,0.00,WeatherDisplay:10.37,2013-01-08 17:31:00,
2013-01-08 12:36:00,37.5,30.3,30.14,West,261,4.0,4.0,75,0.00,CLR,,0.00,WeatherDisplay:10.37,2013-01-08 17:36:00,
2013-01-08 12:41:00,37.5,30.3,30.14,WNW,284,2.3,2.3,75,0.00,CLR,,0.00,WeatherDisplay:10.37,2013-01-08 17:41:00,
2013-01-08 12:46:00,37.5,30.3,30.14,SW,236,2.3,2.3,75,0.00,CLR,,0.00,WeatherDisplay:10.37,2013-01-08 17:46:00,
2013-01-08 12:51:00,37.7,30.8,30.14,WSW,238,3.5,3.5,76,0.00,CLR,,0.00,WeatherDisplay:10.37,2013-01-08 17:51:00,
2013-01-08 12:56:00,37.9,31.0,30.14,WSW,253,6.9,6.9,76,0.00,CLR,,0.00,WeatherDisplay:10.37,2013-01-08 17:56:00,
2013-01-08 13:01:00,37.9,30.7,30.14,West,264,1.1,1.1,75,0.00,CLR,,0.00,WeatherDisplay:10.37,2013-01-08 18:01:00,
2013-01-08 13:06:00,37.9,31.0,30.14,WNW,295,0.0,0.0,76,0.00,CLR,,0.00,WeatherDisplay:10.37,2013-01-08 18:06:00,
2013-01-08 13:11:00,38.1,30.9,30.14,WNW,302,3.5,3.5,75,0.00,CLR,,0.00,WeatherDisplay:10.37,2013-01-08 18:11:00,
2013-01-08 13:16:00,38.3,30.7,30.14,West,261,4.6,4.6,74,0.00,CLR,,0.00,WeatherDisplay:10.37,2013-01-08 18:16:00,
2013-01-08 13:21:00,38.4,30.5,30.14,WSW,241,8.1,8.1,73,0.00,CLR,,0.00,WeatherDisplay:10.37,2013-01-08 18:21:00,
2013-01-08 13:26:00,38.3,30.7,30.13,WSW,247,3.5,3.5,74,0.00,CLR,,0.00,WeatherDisplay:10.37,2013-01-08 18:26:00,
2013-01-08 13:31:00,38.4,30.8,30.13,WSW,256,0.0,0.0,74,0.00,CLR,,0.00,WeatherDisplay:10.37,2013-01-08 18:31:00,
2013-01-08 13:36:00,38.9,31.0,30.13,SW,225,3.5,3.5,73,0.00,CLR,,0.00,WeatherDisplay:10.37,2013-01-08 18:36:00,
2013-01-08 13:41:00,39.1,31.5,30.13,SW,223,4.6,4.6,74,0.00,CLR,,0.00,WeatherDisplay:10.37,2013-01-08 18:41:00,
2013-01-08 13:46:00,38.9,30.6,30.13,SW,220,4.6,4.6,72,0.00,CLR,,0.00,WeatherDisplay:10.37,2013-01-08 18:46:00,
2013-01-08 13:51:00,39.2,30.9,30.12,SW,217,3.5,3.5,72,0.00,CLR,,0.00,WeatherDisplay:10.37,2013-01-08 18:51:00,
2013-01-08 13:56:00,39.7,31.4,30.12,SW,218,1.0,1.0,72,0.00,CLR,,0.00,WeatherDisplay:10.37,2013-01-08 18:56:00,
2013-01-08 14:01:00,40.0,31.4,30.12,WSW,244,4.0,4.0,71,0.00,CLR,,0.00,WeatherDisplay:10.37,2013-01-08 19:01:00,
2013-01-08 14:06:00,40.2,31.5,30.12,SW,219,5.8,5.8,71,0.00,CLR,,0.00,WeatherDisplay:10.37,2013-01-08 19:06:00,
2013-01-08 14:11:00,40.2,31.2,30.12,SW,215,0.0,0.0,70,0.00,CLR,,0.00,WeatherDisplay:10.37,2013-01-08 19:11:00,
2013-01-08 14:16:00,40.6,31.6,30.12,WSW,240,3.5,3.5,70,0.00,CLR,,0.00,WeatherDisplay:10.37,2013-01-08 19:16:00,
2013-01-08 14:21:00,40.8,31.4,30.12,SW,235,5.8,5.8,69,0.00,CLR,,0.00,WeatherDisplay:10.37,2013-01-08 19:21:00,
2013-01-08 14:26:00,40.8,31.4,30.13,WSW,248,11.5,11.5,69,0.00,CLR,,0.00,WeatherDisplay:10.37,2013-01-08 19:26:00,
2013-01-08 14:31:00,40.6,31.2,30.12,SW,226,6.9,6.9,69,0.00,CLR,,0.00,WeatherDisplay:10.37,2013-01-08 19:31:00,
2013-01-08 14:36:00,40.4,31.4,30.13,SW,223,5.8,5.8,70,0.00,CLR,,0.00,WeatherDisplay:10.37,2013-01-08 19:36:00,
2013-01-08 14:41:00,40.4,31.4,30.13,SW,236,3.5,3.5,70,0.00,CLR,,0.00,WeatherDisplay:10.37,2013-01-08 19:41:00,
2013-01-08 14:46:00,40.7,31.7,30.13,SSW,199,6.0,6.0,70,0.00,CLR,,0.00,WeatherDisplay:10.37,2013-01-08 19:46:00,
2013-01-08 14:51:00,40.6,31.6,30.13,SW,214,5.0,5.0,70,0.00,CLR,,0.00,WeatherDisplay:10.37,2013-01-08 19:51:00,
2013-01-08 14:56:00,40.6,31.6,30.13,SW,231,5.8,5.8,70,0.00,CLR,,0.00,WeatherDisplay:10.37,2013-01-08 19:56:00,
2013-01-08 15:01:00,40.7,31.3,30.13,SW,232,3.0,3.0,69,0.00,CLR,,0.00,WeatherDisplay:10.37,2013-01-08 20:01:00,
2013-01-08 15:06:00,40.6,31.6,30.13,WSW,245,1.1,0.0,70,0.00,CLR,,0.00,WeatherDisplay:10.37,2013-01-08 20:06:00,
2013-01-08 15:11:00,40.6,31.2,30.13,WSW,244,4.6,4.6,69,0.00,CLR,,0.00,WeatherDisplay:10.37,2013-01-08 20:11:00,
2013-01-08 15:16:00,40.3,31.3,30.13,WSW,238,3.5,3.5,70,0.00,CLR,,0.00,WeatherDisplay:10.37,2013-01-08 20:16:00,
2013-01-08 15:21:00,40.0,31.0,30.13,SW,232,3.5,3.5,70,0.00,CLR,,0.00,WeatherDisplay:10.37,2013-01-08 20:21:00,
2013-01-08 15:26:00,39.9,30.9,30.14,SW,215,6.9,6.9,70,0.00,CLR,,0.00,WeatherDisplay:10.37,2013-01-08 20:26:00,
2013-01-08 15:31:00,39.8,31.2,30.14,SW,225,5.8,5.8,71,0.00,CLR,,0.00,WeatherDisplay:10.37,2013-01-08 20:31:00,
2013-01-08 15:36:00,39.8,31.2,30.14,SW,218,4.6,4.6,71,0.00,CLR,,0.00,WeatherDisplay:10.37,2013-01-08 20:36:00,
2013-01-08 15:41:00,39.7,31.4,30.14,SW,234,4.6,4.6,72,0.00,CLR,,0.00,WeatherDisplay:10.37,2013-01-08 20:41:00,
2013-01-08 15:46:00,39.7,31.1,30.14,WSW,246,3.0,3.0,71,0.00,CLR,,0.00,WeatherDisplay:10.37,2013-01-08 20:46:00,
2013-01-08 15:51:00,39.5,30.9,30.14,WSW,253,7.0,7.0,71,0.00,CLR,,0.00,WeatherDisplay:10.37,2013-01-08 20:51:00,
2013-01-08 15:56:00,39.3,30.7,30.14,WSW,239,5.8,5.8,71,0.00,CLR,,0.00,WeatherDisplay:10.37,2013-01-08 20:56:00,
2013-01-08 16:01:00,39.1,30.8,30.14,WSW,253,4.6,4.6,72,0.00,CLR,,0.00,WeatherDisplay:10.37,2013-01-08 21:01:00,
2013-01-08 16:06:00,39.1,30.8,30.14,WSW,253,1.1,0.0,72,0.00,CLR,,0.00,WeatherDisplay:10.37,2013-01-08 21:06:00,
2013-01-08 16:11:00,39.0,30.7,30.14,WSW,249,3.5,3.5,72,0.00,CLR,,0.00,WeatherDisplay:10.37,2013-01-08 21:11:00,
2013-01-08 16:16:00,38.8,30.5,30.14,WSW,246,1.1,1.1,72,0.00,CLR,,0.00,WeatherDisplay:10.37,2013-01-08 21:16:00,
2013-01-08 16:21:00,38.7,30.4,30.14,WSW,242,3.0,3.0,72,0.00,CLR,,0.00,WeatherDisplay:10.37,2013-01-08 21:21:00,
2013-01-08 16:26:00,38.5,30.6,30.14,WSW,242,1.0,0.0,73,0.00,CLR,,0.00,WeatherDisplay:10.37,2013-01-08 21:26:00,
2013-01-08 16:31:00,38.4,30.2,30.14,SW,235,4.6,4.6,72,0.00,CLR,,0.00,WeatherDisplay:10.37,2013-01-08 21:31:00,
2013-01-08 16:36:00,38.2,30.0,30.14,SW,234,6.9,6.9,72,0.00,CLR,,0.00,WeatherDisplay:10.37,2013-01-08 21:36:00,
2013-01-08 16:41:00,38.0,29.8,30.14,WSW,247,5.8,5.8,72,0.00,CLR,,0.00,WeatherDisplay:10.37,2013-01-08 21:41:00,
2013-01-08 16:46:00,37.9,29.7,30.14,WSW,244,3.5,3.5,72,0.00,CLR,,0.00,WeatherDisplay:10.37,2013-01-08 21:46:00,
2013-01-08 16:51:00,37.7,29.5,30.14,WSW,238,3.5,3.5,72,0.00,CLR,,0.00,WeatherDisplay:10.37,2013-01-08 21:51:00,
2013-01-08 16:56:00,37.5,29.3,30.14,WSW,244,11.5,11.5,72,0.00,CLR,,0.00,WeatherDisplay:10.37,2013-01-08 21:56:00,
2013-01-08 17:01:00,37.3,29.1,30.14,WSW,241,0.0,0.0,72,0.00,CLR,,0.00,WeatherDisplay:10.37,2013-01-08 22:01:00,
2013-01-08 17:06:00,37.0,29.1,30.14,WSW,241,0.0,0.0,73,0.00,CLR,,0.00,WeatherDisplay:10.37,2013-01-08 22:06:00,
2013-01-08 17:11:00,36.8,29.3,30.14,WSW,241,0.0,0.0,74,0.00,CLR,,0.00,WeatherDisplay:10.37,2013-01-08 22:11:00,
2013-01-08 17:16:00,36.5,29.3,30.14,WSW,241,0.0,0.0,75,0.00,CLR,,0.00,WeatherDisplay:10.37,2013-01-08 22:16:00,
2013-01-08 17:21:00,36.3,29.5,30.14,WSW,238,3.5,3.5,76,0.00,CLR,,0.00,WeatherDisplay:10.37,2013-01-08 22:21:00,
2013-01-08 17:26:00,36.1,29.6,30.14,SW,232,0.0,0.0,77,0.00,CLR,,0.00,WeatherDisplay:10.37,2013-01-08 22:26:00,
2013-01-08 17:31:00,35.9,29.4,30.14,SW,230,4.0,4.0,77,0.00,CLR,,0.00,WeatherDisplay:10.37,2013-01-08 22:31:00,
2013-01-08 17:36:00,35.7,29.2,30.14,SW,229,0.0,0.0,77,0.00,CLR,,0.00,WeatherDisplay:10.37,2013-01-08 22:36:00,
2013-01-08 17:41:00,35.5,29.3,30.14,SW,227,0.0,0.0,78,0.00,CLR,,0.00,WeatherDisplay:10.37,2013-01-08 22:41:00,
2013-01-08 17:46:00,35.2,29.0,30.14,SW,228,0.0,0.0,78,0.00,CLR,,0.00,WeatherDisplay:10.37,2013-01-08 22:46:00,
2013-01-08 17:51:00,34.8,29.0,30.14,SW,227,0.0,0.0,79,0.00,CLR,,0.00,WeatherDisplay:10.37,2013-01-08 22:51:00,
2013-01-08 17:56:00,34.6,28.8,30.14,SW,227,0.0,0.0,79,0.00,CLR,,0.00,WeatherDisplay:10.37,2013-01-08 22:56:00,
2013-01-08 18:01:00,34.4,28.9,30.14,SW,227,0.0,0.0,80,0.00,CLR,,0.00,WeatherDisplay:10.37,2013-01-08 23:01:00,
2013-01-08 18:06:00,34.4,28.9,30.14,SW,227,0.0,0.0,80,0.00,CLR,,0.00,WeatherDisplay:10.37,2013-01-08 23:06:00,
2013-01-08 18:11:00,34.2,28.7,30.14,SW,228,0.0,0.0,80,0.00,CLR,,0.00,WeatherDisplay:10.37,2013-01-08 23:11:00,
2013-01-08 18:16:00,33.9,28.7,30.14,SW,227,0.0,0.0,81,0.00,CLR,,0.00,WeatherDisplay:10.37,2013-01-08 23:16:00,
2013-01-08 18:21:00,33.5,28.3,30.14,SW,227,0.0,0.0,81,0.00,CLR,,0.00,WeatherDisplay:10.37,2013-01-08 23:21:00,
2013-01-08 18:26:00,32.9,28.0,30.14,SW,227,0.0,0.0,82,0.00,CLR,,0.00,WeatherDisplay:10.37,2013-01-08 23:26:00,
2013-01-08 18:31:00,32.7,28.1,30.14,SW,227,1.1,1.1,83,0.00,CLR,,0.00,WeatherDisplay:10.37,2013-01-08 23:31:00,
2013-01-08 18:36:00,32.5,27.9,30.14,SW,227,0.0,0.0,83,0.00,CLR,,0.00,WeatherDisplay:10.37,2013-01-08 23:36:00,
2013-01-08 18:41:00,32.4,28.1,30.14,SW,227,0.0,0.0,84,0.00,CLR,,0.00,WeatherDisplay:10.37,2013-01-08 23:41:00,
2013-01-08 18:46:00,32.2,27.9,30.13,SW,227,0.0,0.0,84,0.00,CLR,,0.00,WeatherDisplay:10.37,2013-01-08 23:46:00,
2013-01-08 18:51:00,32.0,27.7,30.13,SW,227,0.0,0.0,84,0.00,CLR,,0.00,WeatherDisplay:10.37,2013-01-08 23:51:00,
2013-01-08 18:56:00,31.7,27.7,30.13,SW,227,0.0,0.0,85,0.00,CLR,,0.00,WeatherDisplay:10.37,2013-01-08 23:56:00,
2013-01-08 19:01:00,31.4,27.4,30.12,SW,227,0.0,0.0,85,0.00,CLR,,0.00,WeatherDisplay:10.37,2013-01-09 00:01:00,
2013-01-08 19:06:00,31.2,27.2,30.12,SW,227,1.0,0.0,85,0.00,CLR,,0.00,WeatherDisplay:10.37,2013-01-09 00:06:00,
2013-01-08 19:11:00,31.1,27.4,30.12,SW,227,0.0,0.0,86,0.00,CLR,,0.00,WeatherDisplay:10.37,2013-01-09 00:11:00,
2013-01-08 19:16:00,30.9,28.9,30.12,SW,227,0.0,0.0,92,0.00,CLR,,0.00,WeatherDisplay:10.37,2013-01-09 00:16:00,
2013-01-08 19:21:00,30.8,27.1,30.12,SW,227,1.1,1.1,86,0.00,CLR,,0.00,WeatherDisplay:10.37,2013-01-09 00:21:00,
2013-01-08 19:26:00,30.7,27.0,30.12,SW,227,1.1,0.0,86,0.00,CLR,,0.00,WeatherDisplay:10.37,2013-01-09 00:26:00,
2013-01-08 19:31:00,30.7,27.0,30.11,SW,227,0.0,0.0,86,0.00,CLR,,0.00,WeatherDisplay:10.37,2013-01-09 00:31:00,
2013-01-08 19:36:00,30.6,26.9,30.11,SW,227,2.3,2.3,86,0.00,CLR,,0.00,WeatherDisplay:10.37,2013-01-09 00:36:00,
2013-01-08 19:41:00,30.6,26.9,30.12,SW,227,0.0,0.0,86,0.00,CLR,,0.00,WeatherDisplay:10.37,2013-01-09 00:41:00,
2013-01-08 19:46:00,30.7,27.0,30.11,SW,227,0.0,0.2,86,0.00,CLR,,0.00,WeatherDisplay:10.37,2013-01-09 00:46:00,
2013-01-08 19:51:00,30.7,27.0,30.11,SW,221,2.3,0.0,86,0.00,CLR,,0.00,WeatherDisplay:10.37,2013-01-09 00:51:00,
2013-01-08 19:56:00,30.8,27.1,30.11,SW,219,0.0,0.0,86,0.00,CLR,,0.00,WeatherDisplay:10.37,2013-01-09 00:56:00,
2013-01-08 20:01:00,30.8,26.8,30.11,SW,216,3.5,3.5,85,0.00,CLR,,0.00,WeatherDisplay:10.37,2013-01-09 01:01:00,
2013-01-08 20:06:00,30.9,26.9,30.11,SW,216,0.0,0.0,85,0.00,CLR,,0.00,WeatherDisplay:10.37,2013-01-09 01:06:00,
2013-01-08 20:11:00,30.9,26.9,30.11,SW,215,2.3,2.3,85,0.00,CLR,,0.00,WeatherDisplay:10.37,2013-01-09 01:11:00,
2013-01-08 20:16:00,31.0,27.0,30.11,SW,214,0.0,0.2,85,0.00,CLR,,0.00,WeatherDisplay:10.37,2013-01-09 01:16:00,
2013-01-08 20:21:00,31.0,27.0,30.10,SW,215,0.0,0.0,85,0.00,CLR,,0.00,WeatherDisplay:10.37,2013-01-09 01:21:00,
2013-01-08 20:26:00,31.0,26.7,30.10,SW,215,0.0,0.0,84,0.00,CLR,,0.00,WeatherDisplay:10.37,2013-01-09 01:26:00,
2013-01-08 20:31:00,31.0,26.7,30.10,SW,215,2.3,2.3,84,0.00,CLR,,0.00,WeatherDisplay:10.37,2013-01-09 01:31:00,
2013-01-08 20:36:00,31.0,26.7,30.10,SW,214,2.3,2.3,84,0.00,CLR,,0.00,WeatherDisplay:10.37,2013-01-09 01:36:00,
2013-01-08 20:41:00,30.9,26.6,30.10,SW,215,1.1,1.1,84,0.00,CLR,,0.00,WeatherDisplay:10.37,2013-01-09 01:41:00,
2013-01-08 20:46:00,30.9,26.6,30.10,SSW,213,0.0,0.0,84,0.00,CLR,,0.00,WeatherDisplay:10.37,2013-01-09 01:46:00,
2013-01-08 20:51:00,30.8,26.5,30.09,SSW,213,0.0,0.0,84,0.00,CLR,,0.00,WeatherDisplay:10.37,2013-01-09 01:51:00,
2013-01-08 20:56:00,30.8,26.5,30.09,SSW,212,3.5,3.5,84,0.00,CLR,,0.00,WeatherDisplay:10.37,2013-01-09 01:56:00,
2013-01-08 21:01:00,30.8,26.5,30.09,SSW,212,0.0,0.1,84,0.00,CLR,,0.00,WeatherDisplay:10.37,2013-01-09 02:01:00,
2013-01-08 21:06:00,30.7,26.4,30.09,SSW,211,2.3,2.3,84,0.00,CLR,,0.00,WeatherDisplay:10.37,2013-01-09 02:06:00,
2013-01-08 21:11:00,30.7,26.4,30.08,SSW,209,0.0,0.0,84,0.00,CLR,,0.00,WeatherDisplay:10.37,2013-01-09 02:11:00,
2013-01-08 21:16:00,30.7,26.4,30.08,SSW,201,2.3,2.3,84,0.00,CLR,,0.00,WeatherDisplay:10.37,2013-01-09 02:16:00,
2013-01-08 21:21:00,30.8,26.5,30.08,SSW,202,3.5,3.5,84,0.00,CLR,,0.00,WeatherDisplay:10.37,2013-01-09 02:21:00,
2013-01-08 21:26:00,30.8,26.5,30.09,SSW,203,0.0,0.0,84,0.00,CLR,,0.00,WeatherDisplay:10.37,2013-01-09 02:26:00,
2013-01-08 21:31:00,30.7,26.4,30.09,SSW,204,0.0,0.0,84,0.00,CLR,,0.00,WeatherDisplay:10.37,2013-01-09 02:31:00,
2013-01-08 21:36:00,30.7,26.4,30.09,SW,220,4.0,4.0,84,0.00,CLR,,0.00,WeatherDisplay:10.37,2013-01-09 02:36:00,
2013-01-08 21:41:00,30.8,26.5,30.09,SW,221,2.3,2.3,84,0.00,CLR,,0.00,WeatherDisplay:10.37,2013-01-09 02:41:00,
2013-01-08 21:46:00,30.9,26.6,30.09,SW,228,3.5,3.5,84,0.00,CLR,,0.00,WeatherDisplay:10.37,2013-01-09 02:46:00,
2013-01-08 21:53:00,31.1,26.5,30.09,SSW,213,6.9,6.9,83,0.00,CLR,,0.00,WeatherDisplay:10.37,2013-01-09 02:53:00,
2013-01-08 21:58:00,31.1,26.5,30.09,WSW,248,4.6,4.6,83,0.00,CLR,,0.00,WeatherDisplay:10.37,2013-01-09 02:58:00,
2013-01-08 22:03:00,31.1,26.5,30.09,WSW,245,6.9,6.9,83,0.00,CLR,,0.00,WeatherDisplay:10.37,2013-01-09 03:03:00,
2013-01-08 22:08:00,31.1,26.5,30.08,SW,227,2.3,2.3,83,0.00,CLR,,0.00,WeatherDisplay:10.37,2013-01-09 03:08:00,
2013-01-08 22:13:00,31.0,26.4,30.08,SW,225,3.5,3.5,83,0.00,CLR,,0.00,WeatherDisplay:10.37,2013-01-09 03:13:00,
2013-01-08 22:18:00,31.1,26.5,30.07,SW,219,1.1,0.0,83,0.00,CLR,,0.00,WeatherDisplay:10.37,2013-01-09 03:18:00,
2013-01-08 22:23:00,31.0,26.4,30.08,SW,227,3.5,3.5,83,0.00,CLR,,0.00,WeatherDisplay:10.37,2013-01-09 03:23:00,
2013-01-08 22:28:00,31.0,26.4,30.08,WSW,247,6.0,6.0,83,0.00,CLR,,0.00,WeatherDisplay:10.37,2013-01-09 03:28:00,
2013-01-08 22:33:00,30.9,26.3,30.08,SW,235,5.8,5.8,83,0.00,CLR,,0.00,WeatherDisplay:10.37,2013-01-09 03:33:00,
2013-01-08 22:38:00,30.8,26.2,30.08,WSW,238,3.5,3.5,83,0.00,CLR,,0.00,WeatherDisplay:10.37,2013-01-09 03:38:00,
2013-01-08 22:43:00,30.8,26.2,30.08,SW,229,9.2,9.2,83,0.00,CLR,,0.00,WeatherDisplay:10.37,2013-01-09 03:43:00,
2013-01-08 22:48:00,30.7,26.1,30.08,WSW,239,5.8,5.8,83,0.00,CLR,,0.00,WeatherDisplay:10.37,2013-01-09 03:48:00,
2013-01-08 22:53:00,30.8,26.2,30.08,SW,236,6.9,6.9,83,0.00,CLR,,0.00,WeatherDisplay:10.37,2013-01-09 03:53:00,
2013-01-08 22:58:00,30.8,26.2,30.09,WSW,248,3.5,3.5,83,0.00,CLR,,0.00,WeatherDisplay:10.37,2013-01-09 03:58:00,
2013-01-08 23:03:00,30.7,25.9,30.09,WSW,240,3.5,3.5,82,0.00,CLR,,0.00,WeatherDisplay:10.37,2013-01-09 04:03:00,
2013-01-08 23:09:00,30.6,25.8,30.08,WSW,246,3.5,3.5,82,0.00,CLR,,0.00,WeatherDisplay:10.37,2013-01-09 04:09:00,
2013-01-08 23:14:00,30.6,25.8,30.08,WSW,241,2.3,2.3,82,0.00,CLR,,0.00,WeatherDisplay:10.37,2013-01-09 04:14:00,
2013-01-08 23:19:00,30.6,25.8,30.08,SW,236,0.0,0.0,82,0.00,CLR,,0.00,WeatherDisplay:10.37,2013-01-09 04:19:00,
2013-01-08 23:24:00,30.5,25.7,30.07,SW,236,1.1,0.0,82,0.00,CLR,,0.00,WeatherDisplay:10.37,2013-01-09 04:24:00,
2013-01-08 23:29:00,30.3,25.8,30.07,SW,236,3.5,3.5,83,0.00,CLR,,0.00,WeatherDisplay:10.37,2013-01-09 04:29:00,
2013-01-08 23:34:00,30.2,25.7,30.07,SW,234,0.0,1.4,83,0.00,CLR,,0.00,WeatherDisplay:10.37,2013-01-09 04:34:00,
2013-01-08 23:39:00,30.1,25.6,30.07,SW,234,1.0,0.0,83,0.00,CLR,,0.00,WeatherDisplay:10.37,2013-01-09 04:39:00,
2013-01-08 23:44:00,29.9,25.4,30.07,SW,234,0.0,0.5,83,0.00,CLR,,0.00,WeatherDisplay:10.37,2013-01-09 04:44:00,
2013-01-08 23:49:00,29.8,25.6,30.06,SW,232,2.3,2.3,84,0.00,CLR,,0.00,WeatherDisplay:10.37,2013-01-09 04:49:00,
2013-01-08 23:54:00,29.7,25.5,30.05,SW,224,1.0,1.1,84,0.00,CLR,,0.00,WeatherDisplay:10.37,2013-01-09 04:54:00,
2013-01-08 23:59:00,29.6,25.4,30.06,SSW,210,3.5,0.0,84,0.00,CLR,,0.00,WeatherDisplay:10.37,2013-01-09 04:59:00,